Location: Vinland
(47.7731°N, 122.6974°W)
Time: 15:07:08
(UTC+00:00)

Vanguard 2 - All Passes

Search period start: 30 March 2023 00:00
Search period end: 09 April 2023 00:00
Orbit: 552 x 2927 km, 32.9° (Epoch: 29 March)

Date Brightness Start Highest point End Pass type
(mag) Time Alt. Az. Time Alt. Az. Time Alt. Az.
30 Mar - 09:42:04 10° SSE 09:50:45 16° SE 09:59:38 10° ESE visible
30 Mar - 11:45:28 10° SSW 12:00:07 35° SSE 12:13:45 10° E visible
30 Mar - 13:54:26 10° WSW 14:10:37 45° S 14:23:28 10° ESE daylight
30 Mar - 16:06:05 10° WSW 16:20:38 39° SSW 16:31:02 10° SE daylight
30 Mar - 18:20:07 10° W 18:28:45 19° SW 18:35:25 10° S daylight
31 Mar - 09:55:28 10° S 10:06:19 21° SE 10:17:35 10° E visible
31 Mar - 12:00:45 10° SW 12:16:01 39° SSE 12:30:10 10° E visible
31 Mar - 14:10:23 10° WSW 14:26:39 46° S 14:39:32 10° ESE daylight
31 Mar - 16:22:25 10° W 16:36:28 36° SSW 16:46:40 10° SE daylight
31 Mar - 18:37:41 10° WSW 18:44:13 15° SW 18:49:36 10° SSW daylight
01 Apr - 10:09:42 10° SSW 10:21:56 26° SE 10:34:46 10° E visible
01 Apr - 12:16:16 10° SW 12:31:57 43° SSE 12:46:27 10° ESE visible
01 Apr - 14:26:26 10° WSW 14:42:40 46° S 14:55:29 10° ESE daylight
01 Apr - 16:38:52 10° W 16:52:13 32° SSW 17:02:06 10° SSE daylight
01 Apr - 18:57:06 10° WSW 18:59:34 11° SW 19:01:51 10° SW daylight
02 Apr - 08:25:05 10° SE 08:29:05 11° SE 08:33:16 10° ESE visible
02 Apr - 10:24:26 10° SSW 10:37:36 31° SSE 10:51:34 10° E visible
02 Apr - 12:31:58 10° SW 12:47:55 45° S 13:02:38 10° ESE visible
02 Apr - 14:42:33 10° WSW 14:58:37 44° SSW 15:11:21 10° SE daylight
02 Apr - 16:55:29 10° W 17:07:50 27° SW 17:17:16 10° SSE daylight
03 Apr - 08:36:33 10° SSE 08:44:27 16° SE 08:53:08 10° ESE visible
03 Apr - 10:39:31 10° SSW 10:53:20 36° SSE 11:08:06 10° E visible
03 Apr - 12:47:47 10° WSW 13:03:54 47° S 13:18:44 10° ESE visible
03 Apr - 14:58:45 10° W 15:14:30 41° SSW 15:27:04 10° SE daylight
03 Apr - 17:12:21 10° W 17:23:22 23° SW 17:32:05 10° S daylight
04 Apr - 08:50:06 10° S 08:59:52 21° SE 09:10:59 10° E visible
04 Apr - 10:54:51 10° SW 11:09:08 40° SSE 11:24:28 10° E visible
04 Apr - 13:03:43 10° WSW 13:19:54 48° S 13:34:44 10° ESE visible
04 Apr - 15:15:03 10° W 15:30:19 38° SSW 15:42:37 10° SE daylight
04 Apr - 17:29:41 10° W 17:38:46 18° SW 17:46:20 10° S daylight
05 Apr - 09:04:27 10° S 09:15:21 26° SE 09:28:07 10° E visible
05 Apr - 11:10:23 10° SW 11:24:58 43° SSE 11:40:43 10° ESE visible
05 Apr - 13:19:44 10° WSW 13:35:52 47° S 13:50:39 10° ESE daylight
05 Apr - 15:31:26 10° W 15:46:02 34° SSW 15:57:57 10° SSE daylight
05 Apr - 17:48:01 10° WSW 17:54:06 13° SW 17:59:30 10° SSW daylight
06 Apr - 09:19:16 10° SSW 09:30:54 31° SSE 09:44:52 10° E visible
06 Apr - 11:26:04 10° SW 11:40:52 46° S 11:56:51 10° ESE visible
06 Apr - 13:35:48 10° WSW 13:51:48 45° SSW 14:06:26 10° SE daylight
06 Apr - 15:47:59 10° W 16:01:39 29° SSW 16:13:01 10° SSE daylight
07 Apr - 07:32:07 10° SSE 07:38:19 15° SE 07:45:27 10° ESE visible
07 Apr - 09:34:23 10° SSW 09:46:32 35° SSE 10:01:21 10° E visible
07 Apr - 11:41:53 10° WSW 11:56:48 47° S 12:12:55 10° ESE visible
07 Apr - 13:51:57 10° W 14:07:39 42° SSW 14:22:04 10° SE daylight
07 Apr - 16:04:47 10° W 16:17:10 25° SW 16:27:43 10° S daylight
08 Apr - 07:45:38 10° S 07:53:39 19° SE 08:03:23 10° E visible
08 Apr - 09:49:44 10° SW 10:02:15 39° SSE 10:17:41 10° E visible
08 Apr - 11:57:46 10° WSW 12:12:44 48° S 12:28:52 10° ESE visible
08 Apr - 14:08:11 10° W 14:23:27 39° SSW 14:37:32 10° SE daylight
08 Apr - 16:22:00 10° W 16:32:34 20° SW 16:41:54 10° S daylight
